Regional Weather Roundup
Issued by NWS

Home | Current Version | Previous Version | Graphics & Text | Print | Product List | Glossary On
Versions: 1 2 3 4 5 6 7 8 9 10 11 12 13 14 15 16 17 18 19 20 21 22 23 24 25 26 27 28 29 30 31 32 33 34 35 36 37 38 39 40 41 42 43 44 45 46 47 48 49 50
000
ASUS44 KMEG 171500
RWRTN
TENNESSEE HOURLY STATE WEATHER ROUNDUP
NATIONAL WEATHER SERVICE MEMPHIS TN
1000 AM CDT FRI APR 17 2015

TNZ002-004-019-021-049-052-054-088>092-171600-
WEST TENNESSEE

CITY           SKY/WX    TMP DP  RH WIND       PRES   REMARKS
MEMPHIS INTL   CLOUDY    68  64  87 E6        30.06R
NWS MEMPHIS      N/A     67 N/A N/A MISG        N/A
JACKSON        CLOUDY    63  60  90 E6        30.10R
DYERSBURG      CLOUDY    64  52  63 E3        30.10R
UNION CITY     CLOUDY    64  32  29 E7        30.09S
PARIS          CLOUDY    63  59  88 SE5       30.11S
LEXINGTON      CLOUDY    61  57  88 SE6       30.11R
SAVANNAH       CLOUDY    61  32  33 E5        30.11S
$$

TNZ008-025-027-028-033-062-065-066-171600-
NORTH MIDDLE TENNESSEE

CITY           SKY/WX    TMP DP  RH WIND       PRES   REMARKS
NASHVILLE      CLOUDY    63  58  83 SE3       30.13S
CLARKSVILLE    CLOUDY    65  60  84 E5        30.11S
COOKEVILLE     CLOUDY    64  61  88 CALM      30.12F
CROSSVILLE     PTSUNNY   63  56  78 CALM      30.16F
$$

TNZ061-075-076-078-094-096-097-171600-
SOUTH MIDDLE TENNESSEE

CITY           SKY/WX    TMP DP  RH WIND       PRES   REMARKS
FAYETTEVILLE     N/A     61  57  88 CALM      30.12S
TULLAHOMA      CLOUDY    63  57  82 CALM      30.13F
WINCHESTER     PTSUNNY   64  59  82 SE8       30.12F
MCMINNVILLE    SUNNY     64  63  94 VRB3      30.13S
COLUMBIA       CLOUDY    61  32  33 CALM      30.11S
SHELBYVILLE    CLOUDY    64  61  88 VRB5      30.13F
$$

TNZ017-018-042-046-047-171600-
NORTHEAST TENNESSEE

CITY           SKY/WX    TMP DP  RH WIND       PRES   REMARKS
TRI CITIES     CLOUDY    62  54  74 CALM      30.17S
ELIZABETHTON   CLOUDY    64  54  68 SW5       30.17S
$$

TNZ012-013-036-069-073-074-171600-
CENTRAL EAST TENNESSEE

CITY           SKY/WX    TMP DP  RH WIND       PRES   REMARKS
KNOXVILLE      CLOUDY    62  58  86 CALM      30.15S
OAK RIDGE      CLOUDY    64  57  78 CALM      30.17S
GATLINBURG     CLOUDY    63  55  77 E6        30.16R
$$

TNZ083-085-099-171600-
SOUTHEAST TENNESSEE

CITY           SKY/WX    TMP DP  RH WIND       PRES   REMARKS
CHATTANOOGA    CLOUDY    61  57  87 CALM      30.15F FOG
$$

SKY/WX REPORTED AS FAIR MEANS FEW OR NO CLOUDS BELOW
12 THOUSAND FEET.



USA.gov is the U.S. government's official web portal to all federal, state and local government web resources and services.